Back to catalog

COSMOS 1651

GLONASS

AliveNavigationMEO
NORAD 15698·PAYLOAD·🇷🇺 Russia

Launched May 17, 1985 from Baikonur Cosmodrome

Loading…

Next Passes (next 24 hours)

TLE

FreshSource: Space-Track

Epoch: Sep 8, 2026, 09:12 UTC

1 15698U 85037B   26251.38335932  .00000034  00000-0  00000-0 0  9991
2 15698  64.9325  69.9904 0015198  28.2156 345.1179  2.13123300321567

Track COSMOS 1651 in real time with AllMySat

Download on the App Store